[[{"header":{"parameterUnit":"m.s-1","parameterCategory":1,"la1":30.2991,"la2":30.254,"lo1":-89.0895,"lo2":-89.0444,"dy":0.0017,"dx":0.0017,"nx":28,"ny":28,"refTime":"2025-03-09T03:00:00:Z","depth":0,"parameterNumber":2,"parameterNumberName":"U-component_of_WINDS"},"data":[0,0,0,0,0,0,0,0,0,0,0,0,0,0,0,0,0,0,0,0,0,0,0,0,0,0,0,0,0,0,0,0,0,0,0,0,0,0,0,0,0,0,0,0,0,0,0,0,0,0,0,0,0,0,0,0,0,0,-2.7132,-2.7133,0,-2.7187,-2.7188,-2.7189,-2.7176,-2.7175,-2.7174,-2.7173,-2.7233,-2.7235,-2.7238,0,0,0,0,0,0,0,0,0,0,0,0,0,-2.7022,-2.7024,-2.7132,-2.7133,-2.7134,-2.7187,-2.7188,-2.7189,-2.7176,-2.7175,-2.7174,-2.7172,-2.7232,-2.7235,-2.7238,0,0,0,0,0,0,0,0,0,0,0,0,0,-2.7073,-2.7025,-2.7132,-2.7134,-2.7134,-2.7187,-2.7188,-2.7189,-2.7176,-2.7175,-2.7173,-2.7172,-2.7231,-2.7235,-2.7239,-2.7294,0,0,-2.725,-2.7252,0,0,0,0,0,0,0,0,-2.707,-2.7077,-2.7133,-2.7134,-2.7134,-2.7173,-2.7171,-2.7224,-2.7177,-2.7161,-2.7173,-2.7171,-2.7215,-2.722,-2.7234,-2.7297,-2.73,-2.7251,-2.7253,-2.7255,-2.7256,0,0,0,0,0,0,0,-2.7067,-2.7075,-2.7154,-2.7134,-2.7135,-2.7134,-2.7139,-2.7181,-2.7196,-2.7162,-2.7161,-2.7168,-2.7215,-2.723,-2.7235,-2.73,-2.7251,-2.7254,-2.7256,-2.7258,-2.7417,-2.7418,0,0,0,0,0,0,-2.7062,-2.7072,-2.7152,-2.7156,-2.7098,-2.7137,-2.7143,-2.7162,-2.7195,-2.7199,-2.7169,-2.7167,-2.7224,-2.723,-2.7237,-2.7306,-2.7255,-2.7258,-2.7261,-2.7415,-2.7417,-2.7419,0,0,0,0,0,0,-2.7059,-2.7069,-2.715,-2.7114,-2.7124,-2.7141,-2.7162,-2.7164,-2.7179,-2.7201,-2.7204,-2.7181,-2.7223,-2.7232,-2.7281,-2.7308,-2.726,-2.7264,-2.7413,-2.7415,-2.7418,-2.7443,0,0,0,0,0,0,-2.7056,-2.7068,-2.7087,-2.7114,-2.7126,-2.7191,-2.7164,-2.7167,-2.7186,-2.7183,-2.7213,-2.7216,-2.7222,-2.7275,-2.7285,-2.7312,-2.7267,-2.741,-2.7414,-2.7417,-2.744,-2.7446,-2.7452,0,0,0,0,0,-2.7052,-2.7092,-2.7088,-2.7098,-2.715,-2.7192,-2.7199,-2.7204,-2.7188,-2.7209,-2.7223,-2.7215,-2.7304,-2.728,-2.7291,-2.732,-2.7408,-2.7413,-2.7417,-2.7437,-2.7445,-2.7452,0,0,0,0,0,0,-2.7068,-2.7096,-2.7092,-2.7141,-2.7165,-2.719,-2.7216,-2.7212,-2.7241,-2.7238,-2.7245,-2.7252,-2.7302,-2.7316,-2.729,-2.7378,-2.7354,-2.7361,-2.7366,-2.7374,-2.738,-2.7374,-2.727,0,0,0,0,0,-2.7078,-2.7108,-2.7131,-2.7173,-2.7185,-2.7199,-2.7217,-2.722,-2.7244,-2.7254,-2.7272,-2.7298,-2.7332,-2.7354,-2.7386,-2.7443,-2.7451,-2.7469,-2.7475,-2.748,-2.7485,-2.7519,-2.7528,-2.7433,-2.7433,-2.7433,0,0,-2.7097,-2.7116,-2.7134,-2.7176,-2.7195,-2.7228,-2.7207,-2.7242,-2.7268,-2.726,-2.7307,-2.7322,-2.7352,-2.7406,-2.7431,-2.7419,-2.7514,-2.7485,-2.7489,-2.7492,-2.7524,-2.7533,-2.7541,-2.7436,-2.7435,-2.7435,0,0,-2.7149,-2.7166,-2.7203,-2.7223,-2.7251,-2.7261,-2.7271,-2.7298,-2.7307,-2.7355,-2.7351,-2.7383,-2.744,-2.7462,-2.7481,-2.7547,-2.7542,-2.7558,-2.7589,-2.7622,-2.7629,-2.7636,-2.7661,-2.7669,-2.7563,-2.7564,-2.7564,0,-2.7169,-2.7218,-2.7223,-2.726,-2.728,-2.7275,-2.7315,-2.7334,-2.7372,-2.7387,-2.7374,-2.7449,-2.7468,-2.7528,-2.7545,-2.756,-2.7573,-2.7553,-2.7628,-2.7634,-2.7641,-2.7664,-2.7674,-2.7565,-2.7565,-2.7565,-2.7565,0,-2.7242,-2.7277,-2.7304,-2.734,-2.7364,-2.7402,-2.7416,-2.7439,-2.7441,-2.7454,-2.7505,-2.7529,-2.7567,-2.7582,-2.7584,-2.7644,-2.7636,-2.7626,-2.7602,-2.7651,-2.7674,-2.7683,-2.7568,-2.7567,-2.7567,-2.7566,0,0,-2.7302,-2.7344,-2.7354,-2.7372,-2.7405,-2.7433,-2.7473,-2.751,-2.7531,-2.7559,-2.7594,-2.7645,-2.7637,-2.7658,-2.7663,-2.7693,-2.7746,-2.7679,-2.768,-2.7691,-2.7815,-2.7822,-2.7832,-2.7744,-2.7745,-2.7747,-2.7813,0,-2.7357,-2.7425,-2.7433,-2.7495,-2.7528,-2.7527,-2.7562,-2.7588,-2.7602,-2.7634,-2.7651,-2.7687,-2.7672,-2.7686,-2.7715,-2.7733,-2.7771,-2.7728,-2.7777,-2.7779,-2.7768,-2.7844,-2.785,-2.7912,-2.7822,-2.7823,-2.7824,0,-2.7428,-2.7459,-2.7523,-2.7556,-2.757,-2.7601,-2.7638,-2.7668,-2.7699,-2.7708,-2.7734,-2.7737,-2.7781,-2.7757,-2.782,-2.7791,-2.7812,-2.7825,-2.7828,-2.7831,-2.7803,-2.7849,-2.7931,-2.794,-2.7838,-2.7837,-2.7836,0,-2.7466,-2.7523,-2.757,-2.7586,-2.7624,-2.7646,-2.7664,-2.7693,-2.7716,-2.775,-2.7765,-2.7804,-2.7824,-2.7856,-2.787,-2.7851,-2.7932,-2.7909,-2.7942,-2.7942,-2.7957,-2.7955,-2.8043,-2.7973,-2.7972,-2.7972,-2.7972,0,-2.7525,-2.7565,-2.7587,-2.7616,-2.7662,-2.7674,-2.7719,-2.7737,-2.7764,-2.7798,-2.7801,-2.7833,-2.785,-2.7886,-2.7898,-2.7949,-2.7959,-2.7968,-2.7971,-2.7967,-2.7966,-2.798,-2.7976,-2.7975,-2.7974,-2.7974,-2.7973,0,-2.7573,-2.759,-2.7641,-2.7674,-2.7684,-2.7716,-2.7746,-2.7776,-2.7791,-2.7834,-2.7845,-2.787,-2.7913,-2.7931,-2.7983,-2.7992,-2.805,-2.805,-2.8039,-2.804,-2.8072,-2.8068,-2.817,-2.8184,-2.8105,-2.8106,-2.8107,0,-2.7609,-2.764,-2.7678,-2.77,-2.7718,-2.7755,-2.7779,-2.7794,-2.7819,-2.7859,-2.7885,-2.7927,-2.7962,-2.8031,-2.8055,-2.8096,-2.8097,-2.813,-2.8103,-2.8099,-2.8097,-2.8095,-2.8099,-2.8134,-2.8135,-2.8135,-2.8136,0,-2.7672,-2.768,-2.7713,-2.7751,-2.778,-2.7811,-2.7841,-2.786,-2.788,-2.7909,-2.7953,-2.798,-2.8035,-2.8078,-2.8122,-2.8142,-2.8143,-2.8145,-2.8154,-2.815,-2.8143,-2.8148,-2.8052,-2.8142,-2.8141,-2.8141,-2.814,-2.814,-2.7715,-2.7743,-2.7775,-2.7814,-2.7839,-2.7868,-2.7898,-2.7918,-2.7954,-2.7999,-2.8007,-2.8054,-2.8089,-2.8147,-2.817,-2.8209,-2.8201,-2.8215,-2.8218,-2.8221,-2.8223,-2.8138,-2.8217,-2.8217,-2.8217,-2.8217,-2.8217,0,-2.7778,-2.7799,-2.7835,-2.7878,-2.7909,-2.7908,-2.7943,-2.797,-2.8011,-2.8043,-2.8078,-2.813,-2.8173,-2.8202,-2.8246,-2.8272,-2.8274,-2.8283,-2.8281,-2.8286,-2.8228,-2.8215,-2.8281,-2.8281,-2.8281,-2.8281,-2.8281,-2.8281,-2.7814,-2.7862,-2.7875,-2.7937,-2.7959,-2.8004,-2.8024,-2.8053,-2.8079,-2.8136,-2.8172,-2.8191,-2.8223,-2.827,-2.8311,-2.8319,-2.8335,-2.8345,-2.8352,-2.8296,-2.829,-2.8283,-2.8271,-2.8348,-2.8348,-2.8407,-2.8407,-2.8408]},{"header":{"parameterUnit":"m.s-1","parameterCategory":1,"la1":30.2991,"la2":30.254,"lo1":-89.0895,"lo2":-89.0444,"dy":0.0017,"dx":0.0017,"nx":28,"ny":28,"refTime":"2025-03-09T03:00:00:Z","depth":0,"parameterNumber":3,"parameterNumberName":"V-component_of_WINDS"},"data":[0,0,0,0,0,0,0,0,0,0,0,0,0,0,0,0,0,0,0,0,0,0,0,0,0,0,0,0,0,0,0,0,0,0,0,0,0,0,0,0,0,0,0,0,0,0,0,0,0,0,0,0,0,0,0,0,0,0,2.2394,2.2393,0,2.235,2.235,2.2349,2.2322,2.2322,2.2322,2.2322,2.2274,2.2273,2.2271,0,0,0,0,0,0,0,0,0,0,0,0,0,2.245,2.2449,2.2394,2.2393,2.2393,2.2351,2.235,2.2349,2.2322,2.2322,2.2322,2.2322,2.2274,2.2273,2.2271,0,0,0,0,0,0,0,0,0,0,0,0,0,2.2418,2.2449,2.2394,2.2374,2.2372,2.2351,2.235,2.2349,2.2322,2.2322,2.2322,2.2322,2.2275,2.2273,2.2271,2.2265,0,0,2.2266,2.2265,0,0,0,0,0,0,0,0,2.242,2.2416,2.2378,2.2376,2.2373,2.2342,2.2352,2.2321,2.2323,2.2341,2.2322,2.2322,2.2296,2.2293,2.2285,2.2262,2.226,2.2266,2.2265,2.2264,2.2263,0,0,0,0,0,0,0,2.2422,2.2418,2.2376,2.2377,2.2374,2.2367,2.2362,2.2346,2.232,2.234,2.2338,2.2333,2.2295,2.2287,2.2284,2.226,2.2266,2.2264,2.2263,2.2262,2.223,2.223,0,0,0,0,0,0,2.2428,2.242,2.2378,2.2375,2.2397,2.2366,2.2361,2.2352,2.232,2.2315,2.2333,2.2332,2.229,2.2286,2.2282,2.2272,2.2264,2.2262,2.2261,2.223,2.223,2.223,0,0,0,0,0,0,2.2429,2.2425,2.238,2.2397,2.2391,2.2365,2.2356,2.2351,2.2343,2.2316,2.2311,2.233,2.2289,2.2284,2.227,2.227,2.2262,2.226,2.223,2.223,2.223,2.2253,0,0,0,0,0,0,2.2431,2.2425,2.2423,2.2397,2.239,2.2369,2.2356,2.235,2.234,2.2338,2.2311,2.2306,2.2289,2.2272,2.2268,2.2268,2.2259,2.2229,2.223,2.223,2.2252,2.2254,2.2256,0,0,0,0,0,2.2433,2.243,2.2423,2.2418,2.2387,2.2369,2.2365,2.2346,2.2341,2.2338,2.2321,2.2307,2.2271,2.2271,2.2266,2.2265,2.2229,2.223,2.223,2.2251,2.2254,2.2256,0,0,0,0,0,0,2.2455,2.2426,2.2418,2.2407,2.2391,2.2365,2.236,2.2349,2.2333,2.2331,2.2308,2.2302,2.2289,2.2276,2.2276,2.2257,2.2249,2.2248,2.2267,2.2269,2.227,2.2273,2.2257,0,0,0,0,0,2.2459,2.2448,2.2423,2.2415,2.2408,2.2386,2.2377,2.2364,2.2346,2.2339,2.232,2.2302,2.2287,2.2277,2.2261,2.2251,2.2244,2.2247,2.2249,2.2251,2.225,2.2244,2.2245,2.2232,2.2232,2.2232,0,0,2.2465,2.2449,2.2443,2.2419,2.2405,2.2394,2.238,2.2368,2.2359,2.2336,2.2322,2.2308,2.2286,2.2274,2.2267,2.2262,2.2253,2.2251,2.2253,2.2251,2.2244,2.2245,2.2247,2.2232,2.2232,2.2232,0,0,2.2472,2.2459,2.2451,2.2438,2.2418,2.2403,2.2402,2.2378,2.2368,2.2353,2.2337,2.2325,2.2299,2.2285,2.2274,2.2277,2.2264,2.2273,2.2281,2.2275,2.2276,2.2277,2.2278,2.2279,2.2272,2.2272,2.2272,0,2.2483,2.2466,2.2448,2.2438,2.2427,2.2409,2.2401,2.2388,2.2364,2.2357,2.2352,2.232,2.2304,2.2288,2.2289,2.2281,2.2278,2.2275,2.2278,2.2279,2.2279,2.2279,2.228,2.2273,2.2273,2.2273,2.2273,0,2.248,2.2468,2.2464,2.2443,2.2432,2.2423,2.2403,2.2395,2.2384,2.237,2.2355,2.2336,2.2316,2.2312,2.23,2.2294,2.2291,2.2283,2.2273,2.2282,2.2282,2.2282,2.2275,2.2275,2.2274,2.2274,0,0,2.2497,2.2467,2.2466,2.2456,2.2434,2.2424,2.2414,2.2396,2.2389,2.2373,2.2364,2.2343,2.2336,2.2323,2.231,2.2305,2.2308,2.2296,2.2296,2.2299,2.2301,2.2307,2.2307,2.2301,2.23,2.23,2.2302,0,2.2499,2.2482,2.2466,2.2454,2.2443,2.2426,2.2417,2.2402,2.2389,2.2377,2.2362,2.2348,2.2339,2.2332,2.2326,2.2309,2.2308,2.2309,2.229,2.229,2.2295,2.2307,2.2313,2.2316,2.2302,2.2302,2.2302,0,2.25,2.2486,2.2473,2.2453,2.2447,2.244,2.2423,2.2412,2.2395,2.2386,2.2373,2.236,2.2348,2.2341,2.2324,2.2325,2.2316,2.2307,2.2307,2.2303,2.2296,2.2303,2.2316,2.2317,2.2302,2.2302,2.2302,0,2.2513,2.2492,2.2481,2.2474,2.2449,2.2445,2.2434,2.2416,2.2407,2.2392,2.2386,2.2369,2.236,2.2347,2.2329,2.2326,2.2314,2.2306,2.2305,2.2306,2.2302,2.2302,2.2313,2.2299,2.2299,2.2299,2.2299,0,2.2517,2.251,2.2487,2.2481,2.2472,2.2454,2.2445,2.2433,2.2418,2.2408,2.2393,2.2383,2.2361,2.2349,2.2335,2.2323,2.2319,2.231,2.2307,2.2311,2.2312,2.2304,2.2303,2.2299,2.2299,2.2299,2.2299,0,2.253,2.2515,2.2502,2.2481,2.2476,2.247,2.2451,2.2444,2.2431,2.2419,2.2415,2.2394,2.2379,2.2361,2.234,2.2331,2.232,2.2314,2.2326,2.2323,2.2324,2.2324,2.2329,2.2329,2.2316,2.2316,2.2316,0,2.2533,2.2528,2.2507,2.25,2.249,2.2479,2.247,2.2453,2.2444,2.2424,2.2419,2.2404,2.239,2.2367,2.235,2.2334,2.2327,2.233,2.2324,2.233,2.2326,2.2327,2.2326,2.2331,2.2332,2.2332,2.2332,0,2.2541,2.2534,2.2522,2.2508,2.2499,2.2486,2.2473,2.2468,2.2448,2.2439,2.2425,2.2415,2.2394,2.2379,2.2361,2.2349,2.2337,2.2334,2.2333,2.2337,2.2344,2.234,2.2329,2.2334,2.2334,2.2333,2.2333,2.2333,2.2548,2.2542,2.2527,2.2515,2.2504,2.2492,2.2485,2.2472,2.246,2.2443,2.2433,2.2419,2.2402,2.2377,2.2366,2.2354,2.2349,2.2348,2.2347,2.2347,2.2348,2.2347,2.2351,2.2351,2.2351,2.235,2.235,0,2.2554,2.2544,2.2533,2.2516,2.2507,2.2499,2.2484,2.2476,2.2464,2.245,2.2438,2.2422,2.2407,2.2389,2.2373,2.2367,2.2361,2.2363,2.2363,2.236,2.2354,2.2356,2.2368,2.2368,2.2368,2.2368,2.2368,2.2368,2.2556,2.2546,2.2538,2.2522,2.2511,2.2498,2.2491,2.248,2.2469,2.2452,2.244,2.2429,2.2413,2.2396,2.2382,2.2377,2.2372,2.2375,2.2369,2.2362,2.2361,2.2359,2.2361,2.2375,2.2375,2.2376,2.2376,2.2376]}]]